Regional Weather Roundup
Issued by NWS Sterling, VA

Home | Current Version | Previous Version | Graphics & Text | Print | Product List | Glossary On
Versions: 1 2 3 4 5 6 7 8 9 10 11 12 13 14 15 16 17 18 19 20 21 22 23 24 25 26 27 28 29 30 31 32 33 34 35 36 37 38 39 40 41 42 43 44 45 46 47 48 49 50
000
ASUS41 KLWX 011810
RWRLWX

REGIONAL WEATHER ROUNDUP
NATIONAL WEATHER SERVICE BALTIMORE MD/WASHINGTON DC
200 PM EDT FRI AUG 01 2014

Note: "FAIR" indicates few or no clouds below 12,000 feet
with no significant weather and/or obstructions to visibility.
 TC=TEMPERATURE CELSIUS

 * =Non NWS site. Station does not report precipitation (e.g. rain,
    snow, etc.), thunder, or fog.

DCZ001-MDZ009-015-VAZ040>042-051-053>054-011900-
WASHINGTON METRO
  /KDAA//-FT BELVOIR

CITY           SKY/WX    TMP DP  RH WIND       PRES   REMARKS
WASHINGTON NAT LGT RAIN  80  62  54 S7        30.20F
DULLES         CLOUDY    75  63  66 S6        30.21S
ANDREWS AFB    DRIZZLE   76  63  64 S5        30.20F
QUANTICO       CLOUDY    76  67  73 NW7       30.20F
COLLEGE PARK*  CLOUDY    81  59  47 SW5       30.19F
LEESBURG*      CLOUDY    77  68  73 SW7       30.22S
MANASSAS*      PTSUNNY   73  70  88 SW3       30.21
GAITHERSBURG*  CLOUDY    79  63  57 S7        30.25S

$$

MDZ006>007-011-014-011900-
BALTIMORE METRO

CITY           SKY/WX    TMP DP  RH WIND       PRES   REMARKS
BWI AIRPORT    CLOUDY    80  63  55 W10G18    30.19F
MD SCIENCE CTR   N/A     79  66  64 MISG      30.19F
MARTIN STATE   DRIZZLE   79  72  78 S7        30.20F
ANNAPOLIS      CLOUDY    78  66  66 W5        30.19F
FORT MEADE*    CLOUDY    77  64  65 SW6       30.22S

$$

MDZ012-015-019>023-011900-
MARYLAND EASTERN SHORE

CITY           SKY/WX    TMP DP  RH WIND       PRES   REMARKS
OCEAN CITY     LGT RAIN  76  70  82 E5        30.21S
SALISBURY      CLOUDY    79  67  66 E8        30.20S
BAY BRIDGE AP* LGT RAIN  77  64  65 S6        30.19F
CAMBRIDGE*     CLOUDY    77  68  73 NE3       30.19F
EASTON*        CLOUDY    77  72  83 SW3       30.24F

$$

MDZ017>025-011900-
SOUTHERN MARYLAND

CITY           SKY/WX    TMP DP  RH WIND       PRES   REMARKS
PATUXENT RIVER CLOUDY    76  69  79 N6        30.19S
ST INIGOES     CLOUDY    77  68  73 VRB5      30.18S
LEONARDTOWN*   CLOUDY    73  68  83 CALM      30.20F

$$

MDZ003>005-011900-
NORTH CENTRAL MARYLAND

CITY           SKY/WX    TMP DP  RH WIND       PRES   REMARKS
FREDERICK*     PTSUNNY   79  68  69 SW7       30.22F
HAGERSTOWN APT CLOUDY    76  64  66 S10       30.19F
WESTMINSTER*   CLOUDY    77  70  78 SW12      30.20F

$$

MDZ501>502-011900-
WESTERN MARYLAND

CITY           SKY/WX    TMP DP  RH WIND       PRES   REMARKS
OAKLAND*       CLOUDY    70  63  78 SE12      30.24S
CUMBERLAND*    CLOUDY    81  63  54 S3        30.22S

$$

VAZ025>031-011900-
SHENANDOAH VALLEY

CITY           SKY/WX    TMP DP  RH WIND       PRES   REMARKS
WINCHESTER*    RAIN      68  64  88 CALM      30.22R
STAUNTON*      CLOUDY    70  63  77 CALM      30.24F

$$

WVZ021-048>050-054>055-011900-
EASTERN WEST VIRGINIA PANHANDLE

CITY           SKY/WX    TMP DP  RH WIND       PRES   REMARKS
MARTINSBURG    CLOUDY    75  63  66 S8        30.20F
PETERSBURG*    CLOUDY    67  59  75 CALM      30.21F

$$

VAZ036>039-050-011900-
CENTRAL FOOTHILLS

CITY           SKY/WX    TMP DP  RH WIND       PRES   REMARKS
CHARLOTTESVILL LGT RAIN  71  65  81 N3        30.21S
ORANGE*        DRIZZLE   72  64  78 W5        30.22S

$$

VAZ055>057-011900-
NORTH AND CENTRAL PIEDMONT

CITY           SKY/WX    TMP DP  RH WIND       PRES   REMARKS
FREDERICKSBRG* DRIZZLE   76  68  75 CALM      30.18F
STAFFORD*      CLOUDY    76  70  82 N5        30.23F

$$

NCZ024-NYZ072-PAZ021-071-VAZ022-071-011900-
OTHER REGIONAL OBSERVATIONS

CITY           SKY/WX    TMP DP  RH WIND       PRES   REMARKS
NEW YORK CITY  CLOUDY    82  66  58 VRB5      30.20F
PHILADELPHIA   CLOUDY    81  67  62 S7        30.18F
PITTSBURGH     MOSUNNY   80  59  48 VRB6      30.15F
ROANOKE        CLOUDY    70  63  78 N7        30.21F
RICHMOND       CLOUDY    77  68  73 NE7       30.19R
RALEIGH        CLOUDY    71  61  70 E18G24    30.12F

$$

ANZ530>537-011900-
MARINE OBSERVATIONS

STATION/POSITION TIME  TEMP    WIND        PRES
                       AIR SEA DIR/SP/G
                 (UTC) (F)     (DEG/KT/KT) (MB)
THOMAS PT LIGHT  1800   75 78  170/  5/  6 1022.9F
BALT KEY BRIDGE  1800          210/  8/ 11 1022.2F
COVE POINT       1800   74      20/  5/  6 1022.4R
LEWISETTA        1800   74 78   10/  4/  6 1022.0R
SOLOMONS ISLAND  1800      79                N/A
PINEY POINT      1800           40/  5/  6   N/A

$$




USA.gov is the U.S. government's official web portal to all federal, state and local government web resources and services.